Location: Unspecified
(0.0000°N, 0.0000°E)
Time: 15:39:55
(UTC+02:00)

NOAA 12 - Visible Passes

Search period start: 27 April 2015 00:00
Search period end: 07 May 2015 00:00
Orbit: 795 x 816 km, 98.6° (Epoch: 26 April)

Date Brightness Start Highest point End Pass type
(mag) Time Alt. Az. Time Alt. Az. Time Alt. Az.
27 Apr 5.0 21:38:04 10° S 21:43:08 47° WSW 21:48:06 10° NNW visible
28 Apr 4.0 21:13:01 10° SSE 21:18:17 86° ENE 21:23:30 10° N visible
29 Apr 4.4 20:48:30 10° SSE 20:53:25 42° ENE 20:58:21 10° N visible
29 Apr 6.9 22:31:15 10° WSW 22:33:09 11° W 22:34:36 10° W visible
30 Apr 5.3 20:24:43 10° SE 20:28:31 21° E 20:32:30 10° NNE visible
30 Apr 6.1 22:04:01 10° SSW 22:08:13 24° WSW 22:12:15 10° NW visible
01 May 5.0 21:38:18 10° S 21:43:20 47° WSW 21:48:19 10° NNW visible
02 May 4.0 21:13:14 10° SSE 21:18:29 86° ENE 21:23:43 10° N visible
03 May 4.4 20:48:43 10° SSE 20:53:38 42° ENE 20:58:34 10° N visible
03 May 6.9 22:31:32 10° WSW 22:33:22 11° W 22:34:45 10° W visible
04 May 5.3 20:24:55 10° SE 20:28:44 21° E 20:32:43 10° NNE visible
04 May 6.1 22:04:15 10° SSW 22:08:26 23° WSW 22:12:27 10° NW visible
05 May 5.0 21:38:32 10° S 21:43:33 47° WSW 21:48:31 10° NNW visible
06 May 4.0 21:13:27 10° SSE 21:18:42 87° ENE 21:23:55 10° NNW visible
